[[{"header":{"parameterUnit":"m.s-1","parameterCategory":1,"la1":30.2991,"la2":30.254,"lo1":-89.0895,"lo2":-89.0444,"dy":0.0017,"dx":0.0017,"nx":28,"ny":28,"refTime":"2024-12-19T09:00:00:Z","depth":0,"parameterNumber":2,"parameterNumberName":"U-component_of_WINDS"},"data":[0,0,0,0,0,0,0,0,0,0,0,0,0,0,0,0,0,0,0,0,0,0,0,0,0,0,0,0,0,0,0,0,0,0,0,0,0,0,0,0,0,0,0,0,0,0,0,0,0,0,0,0,0,0,0,0,0,0,3.2405,3.2405,0,3.2444,3.2444,3.2445,3.2392,3.239,3.2388,3.2386,3.2426,3.2429,3.2432,0,0,0,0,0,0,0,0,0,0,0,0,0,3.2285,3.2287,3.2405,3.2405,3.2406,3.2444,3.2444,3.2445,3.2392,3.239,3.2388,3.2386,3.2425,3.2428,3.2432,0,0,0,0,0,0,0,0,0,0,0,0,0,3.2332,3.2288,3.2405,3.2384,3.2383,3.2444,3.2444,3.2445,3.2393,3.239,3.2387,3.2384,3.2424,3.2428,3.2432,3.2515,0,0,3.2445,3.2447,0,0,0,0,0,0,0,0,3.2329,3.2336,3.2387,3.2386,3.2384,3.241,3.2417,3.2469,3.2394,3.2389,3.2386,3.2383,3.2423,3.2427,3.2441,3.2517,3.2519,3.2446,3.2448,3.245,3.2451,0,0,0,0,0,0,0,3.2326,3.2334,3.242,3.2387,3.2386,3.2373,3.2377,3.2426,3.2421,3.2389,3.2385,3.2391,3.2422,3.2437,3.2441,3.2519,3.2445,3.2449,3.2452,3.2453,3.2668,3.2671,0,0,0,0,0,0,3.2325,3.2332,3.2419,3.2421,3.2349,3.2378,3.2381,3.2405,3.2421,3.242,3.2393,3.2388,3.2431,3.2436,3.2442,3.2542,3.245,3.2454,3.2456,3.2664,3.2668,3.2672,0,0,0,0,0,0,3.2323,3.2333,3.2417,3.2376,3.2385,3.2383,3.2409,3.2407,3.2422,3.2424,3.2423,3.2409,3.2429,3.2436,3.2498,3.2542,3.2456,3.246,3.2661,3.2666,3.267,3.274,0,0,0,0,0,0,3.232,3.2333,3.2364,3.2377,3.2388,3.2472,3.2412,3.241,3.2429,3.2423,3.2439,3.2439,3.2427,3.2492,3.2502,3.2547,3.2463,3.2657,3.2663,3.2669,3.2734,3.2747,3.2758,0,0,0,0,0,3.2315,3.2382,3.2366,3.2377,3.2427,3.2475,3.2481,3.2467,3.2433,3.2465,3.2466,3.2438,3.2536,3.2499,3.251,3.2556,3.2654,3.2661,3.2668,3.2729,3.2744,3.2758,0,0,0,0,0,0,3.2374,3.2383,3.2365,3.2438,3.2456,3.2466,3.2505,3.2484,3.2512,3.2505,3.2486,3.249,3.2556,3.2562,3.252,3.2638,3.2589,3.2599,3.2632,3.2647,3.2658,3.2655,3.2466,0,0,0,0,0,3.2395,3.2434,3.2439,3.2503,3.2513,3.2508,3.2528,3.2516,3.2534,3.2541,3.2547,3.2565,3.26,3.2624,3.2656,3.2735,3.2738,3.2772,3.2784,3.2794,3.2803,3.2846,3.2862,3.2695,3.2695,3.2695,0,0,3.244,3.245,3.2475,3.2515,3.2528,3.2568,3.2515,3.2559,3.2589,3.2548,3.2606,3.2612,3.2631,3.2702,3.2734,3.2709,3.2849,3.2803,3.2811,3.2814,3.2855,3.2871,3.2885,3.27,3.2699,3.2698,0,0,3.2541,3.2553,3.2607,3.2621,3.2641,3.2638,3.2651,3.2665,3.2667,3.2725,3.2696,3.2731,3.2791,3.2807,3.2823,3.2933,3.2908,3.2943,3.3006,3.3048,3.3061,3.3073,3.3113,3.3127,3.2952,3.2952,3.2952,0,3.2594,3.2654,3.2638,3.2685,3.2704,3.267,3.2725,3.274,3.2769,3.2783,3.2756,3.2832,3.2842,3.2917,3.2944,3.2958,3.2973,3.2941,3.3061,3.3072,3.3083,3.3121,3.3136,3.2956,3.2956,3.2956,3.2955,0,3.2718,3.276,3.2802,3.2832,3.2856,3.2907,3.2899,3.2925,3.2912,3.2911,3.2972,3.2984,3.3019,3.3035,3.3022,3.3109,3.3093,3.3064,3.3014,3.3103,3.3139,3.3153,3.2963,3.2961,3.296,3.2959,0,0,3.2857,3.2879,3.2894,3.2908,3.2929,3.2961,3.3011,3.3045,3.3069,3.3091,3.3133,3.3185,3.3159,3.3177,3.3165,3.3202,3.329,3.3168,3.3168,3.3191,3.3388,3.341,3.3427,3.3274,3.3277,3.3279,3.3386,0,3.2959,3.3046,3.3034,3.3117,3.3157,3.3125,3.3169,3.3187,3.3188,3.3222,3.3223,3.3261,3.3222,3.3233,3.3269,3.3272,3.3329,3.3264,3.3313,3.3315,3.3309,3.3445,3.3469,3.3569,3.34,3.3402,3.3404,0,3.3089,3.3117,3.3205,3.3221,3.3237,3.3276,3.3308,3.334,3.336,3.3358,3.338,3.3362,3.3412,3.3363,3.3433,3.3389,3.3408,3.3413,3.3417,3.3421,3.3365,3.3453,3.3601,3.3616,3.3425,3.3423,3.3422,0,3.3183,3.3242,3.3302,3.3315,3.3335,3.3364,3.3373,3.339,3.3412,3.344,3.3454,3.3487,3.3505,3.3531,3.3523,3.3487,3.3596,3.3545,3.3596,3.3596,3.362,3.3619,3.3773,3.3633,3.3632,3.3632,3.3632,0,3.3298,3.3353,3.3345,3.3382,3.3443,3.343,3.3491,3.3496,3.3512,3.355,3.3525,3.3561,3.3548,3.3584,3.3578,3.3637,3.3646,3.3646,3.3644,3.3649,3.3649,3.3661,3.3654,3.3636,3.3635,3.3634,3.3634,0,3.3413,3.3409,3.3473,3.3487,3.3492,3.3537,3.3548,3.3584,3.3584,3.3633,3.3643,3.3643,3.3684,3.3679,3.3724,3.372,3.3795,3.3784,3.3788,3.3786,3.3838,3.3833,3.4006,3.4028,3.3873,3.3874,3.3876,0,3.3487,3.3528,3.3547,3.3571,3.3583,3.3622,3.3645,3.3633,3.3658,3.3685,3.3717,3.3756,3.3786,3.3854,3.3858,3.3893,3.3883,3.3941,3.3888,3.3892,3.3884,3.3882,3.3887,3.3951,3.3953,3.3955,3.3956,0,3.3619,3.3615,3.3649,3.3683,3.3711,3.3737,3.376,3.3781,3.3772,3.3801,3.3843,3.3867,3.3914,3.3953,3.3987,3.3996,3.3975,3.3973,3.3987,3.3992,3.3993,3.3994,3.3817,3.3969,3.3967,3.3966,3.3966,3.3965,3.3715,3.3752,3.3771,3.381,3.3827,3.3849,3.3884,3.3888,3.3923,3.3961,3.3952,3.4,3.402,3.4063,3.4076,3.4114,3.4093,3.4112,3.4118,3.4123,3.4129,3.3987,3.412,3.412,3.4119,3.4119,3.4119,0,3.3847,3.3858,3.3894,3.3928,3.3959,3.3937,3.3962,3.3989,3.4031,3.4052,3.4083,3.4132,3.417,3.4178,3.4215,3.4244,3.4235,3.4254,3.4252,3.4254,3.4146,3.413,3.426,3.426,3.426,3.426,3.426,3.426,3.3919,3.3979,3.3979,3.4048,3.4058,3.4105,3.4122,3.4143,3.4159,3.4215,3.4247,3.4252,3.4268,3.4306,3.4341,3.4342,3.4357,3.438,3.4378,3.4276,3.4262,3.4248,3.4234,3.4383,3.4383,3.4483,3.4484,3.4485]},{"header":{"parameterUnit":"m.s-1","parameterCategory":1,"la1":30.2991,"la2":30.254,"lo1":-89.0895,"lo2":-89.0444,"dy":0.0017,"dx":0.0017,"nx":28,"ny":28,"refTime":"2024-12-19T09:00:00:Z","depth":0,"parameterNumber":3,"parameterNumberName":"V-component_of_WINDS"},"data":[0,0,0,0,0,0,0,0,0,0,0,0,0,0,0,0,0,0,0,0,0,0,0,0,0,0,0,0,0,0,0,0,0,0,0,0,0,0,0,0,0,0,0,0,0,0,0,0,0,0,0,0,0,0,0,0,0,0,-6.3043,-6.3044,0,-6.3195,-6.3197,-6.3198,-6.3202,-6.32,-6.3199,-6.3197,-6.3346,-6.3351,-6.3357,0,0,0,0,0,0,0,0,0,0,0,0,0,-6.275,-6.2756,-6.3042,-6.3044,-6.3046,-6.3195,-6.3197,-6.3199,-6.3203,-6.32,-6.3198,-6.3196,-6.3344,-6.3351,-6.3358,0,0,0,0,0,0,0,0,0,0,0,0,0,-6.2887,-6.2757,-6.3042,-6.3066,-6.307,-6.3194,-6.3197,-6.3199,-6.3203,-6.32,-6.3198,-6.3195,-6.3342,-6.335,-6.3359,-6.3467,0,0,-6.3385,-6.3388,0,0,0,0,0,0,0,0,-6.2879,-6.2898,-6.3061,-6.3065,-6.3069,-6.3177,-6.3148,-6.3289,-6.3204,-6.3152,-6.3197,-6.3194,-6.3291,-6.3304,-6.3338,-6.3474,-6.348,-6.3385,-6.3391,-6.3394,-6.3397,0,0,0,0,0,0,0,-6.287,-6.2891,-6.3103,-6.3063,-6.3068,-6.3068,-6.3084,-6.3175,-6.3235,-6.3157,-6.3157,-6.3176,-6.3293,-6.333,-6.3342,-6.3482,-6.3385,-6.3393,-6.3398,-6.3401,-6.3715,-6.3718,0,0,0,0,0,0,-6.2856,-6.2883,-6.3098,-6.3107,-6.2966,-6.3075,-6.3094,-6.3145,-6.3234,-6.3246,-6.3178,-6.3175,-6.3317,-6.3332,-6.3347,-6.3481,-6.3394,-6.3402,-6.3407,-6.3712,-6.3716,-6.3719,0,0,0,0,0,0,-6.285,-6.2875,-6.3092,-6.2996,-6.3023,-6.3084,-6.3141,-6.3149,-6.3187,-6.3251,-6.3261,-6.3205,-6.3315,-6.3335,-6.3438,-6.3486,-6.3406,-6.3414,-6.3708,-6.3713,-6.3717,-6.3748,0,0,0,0,0,0,-6.2842,-6.2873,-6.2916,-6.2997,-6.3028,-6.3181,-6.3144,-6.3154,-6.3202,-6.32,-6.3279,-6.3289,-6.3315,-6.3425,-6.3446,-6.3496,-6.342,-6.3704,-6.371,-6.3716,-6.3743,-6.3753,-6.3762,0,0,0,0,0,-6.2831,-6.2917,-6.2918,-6.2944,-6.3083,-6.3184,-6.3202,-6.3232,-6.3206,-6.3249,-6.329,-6.3286,-6.3477,-6.3436,-6.3459,-6.3513,-6.3701,-6.3708,-6.3715,-6.3739,-6.3751,-6.3762,0,0,0,0,0,0,-6.2837,-6.2928,-6.293,-6.3045,-6.3107,-6.3185,-6.324,-6.3244,-6.3313,-6.3308,-6.334,-6.3358,-6.346,-6.3496,-6.3448,-6.3623,-6.3586,-6.3598,-6.3595,-6.3608,-6.3617,-6.3606,-6.3428,0,0,0,0,0,-6.2853,-6.2929,-6.3003,-6.3096,-6.3128,-6.3179,-6.3223,-6.3242,-6.3306,-6.3332,-6.3381,-6.3442,-6.3516,-6.3564,-6.3635,-6.3748,-6.3765,-6.3797,-6.3806,-6.3814,-6.3824,-6.3887,-6.3902,-6.3743,-6.3743,-6.3743,0,0,-6.2884,-6.2943,-6.2988,-6.3099,-6.315,-6.3227,-6.3201,-6.3282,-6.3339,-6.3344,-6.3445,-6.3482,-6.3553,-6.3662,-6.3712,-6.3695,-6.3872,-6.3823,-6.3828,-6.3835,-6.3896,-6.3911,-6.3924,-6.3748,-6.3747,-6.3746,0,0,-6.298,-6.3032,-6.3117,-6.3169,-6.3247,-6.328,-6.33,-6.3378,-6.3404,-6.3507,-6.3512,-6.3579,-6.3705,-6.3756,-6.3798,-6.3916,-6.3915,-6.3938,-6.3987,-6.4049,-6.4061,-6.4072,-6.4115,-6.4129,-6.3948,-6.3948,-6.3948,0,-6.3008,-6.3126,-6.3159,-6.3243,-6.3291,-6.3302,-6.3387,-6.3435,-6.3531,-6.3563,-6.3544,-6.3704,-6.3752,-6.3873,-6.3902,-6.3936,-6.396,-6.3929,-6.4057,-6.4069,-6.408,-6.412,-6.4136,-6.395,-6.395,-6.395,-6.3949,0,-6.3158,-6.3239,-6.3298,-6.3394,-6.3449,-6.3533,-6.3577,-6.3629,-6.3642,-6.3677,-6.3781,-6.384,-6.3924,-6.3954,-6.3966,-6.4077,-6.4064,-6.4051,-6.4014,-6.4097,-6.4135,-6.4151,-6.3953,-6.3953,-6.3952,-6.3951,0,0,-6.3261,-6.3376,-6.3397,-6.3441,-6.3528,-6.3591,-6.3675,-6.376,-6.3804,-6.387,-6.3941,-6.4048,-6.4037,-6.4085,-6.4103,-6.4157,-6.4247,-6.4137,-6.4139,-6.4156,-6.4373,-6.4383,-6.4401,-6.4248,-6.4251,-6.4253,-6.4367,0,-6.3367,-6.3519,-6.3552,-6.3683,-6.3759,-6.377,-6.3843,-6.3904,-6.3939,-6.4007,-6.4045,-6.4122,-6.4101,-6.413,-6.4184,-6.4225,-6.4291,-6.4217,-6.4312,-6.4315,-6.4295,-6.4421,-6.4431,-6.4536,-6.4382,-6.4385,-6.4387,0,-6.3511,-6.3584,-6.3723,-6.3802,-6.3835,-6.39,-6.3982,-6.4047,-6.4116,-6.4137,-6.4192,-6.4206,-6.4292,-6.4252,-6.4371,-6.432,-6.4361,-6.4387,-6.4392,-6.4402,-6.4356,-6.4434,-6.457,-6.4586,-6.4411,-6.4409,-6.4407,0,-6.3573,-6.3706,-6.3806,-6.3844,-6.3938,-6.3984,-6.4025,-6.4091,-6.4141,-6.4211,-6.4243,-6.4321,-6.4364,-6.4423,-6.4457,-6.4425,-6.4574,-6.4536,-6.4593,-6.4592,-6.4623,-6.4621,-6.4768,-6.465,-6.4649,-6.4649,-6.4649,0,-6.3688,-6.3773,-6.3836,-6.3898,-6.3993,-6.4029,-6.4122,-6.4162,-6.4222,-6.429,-6.4304,-6.4368,-6.4409,-6.4478,-6.4504,-6.4599,-6.4618,-6.4637,-6.4643,-6.4636,-6.4634,-6.4663,-6.4656,-6.4653,-6.4652,-6.4652,-6.4651,0,-6.3773,-6.3819,-6.393,-6.4011,-6.4034,-6.41,-6.4169,-6.4229,-6.4265,-6.4352,-6.4374,-6.443,-6.4513,-6.4553,-6.4654,-6.4671,-6.4779,-6.478,-6.4757,-6.4759,-6.4814,-6.4808,-6.4985,-6.501,-6.4875,-6.4876,-6.4877,0,-6.3844,-6.391,-6.3999,-6.4048,-6.4091,-6.4168,-6.422,-6.4258,-6.4311,-6.4395,-6.4445,-6.4528,-6.4598,-6.4728,-6.4777,-6.4854,-6.4857,-6.4914,-6.4869,-6.486,-6.4858,-6.4854,-6.4861,-6.4922,-6.4923,-6.4924,-6.4925,0,-6.3964,-6.3984,-6.4059,-6.4143,-6.4204,-6.4271,-6.4337,-6.4375,-6.4423,-6.4482,-6.4568,-6.4622,-6.4727,-6.4809,-6.4891,-6.4931,-6.4936,-6.4939,-6.4957,-6.495,-6.4934,-6.4944,-6.4779,-6.4935,-6.4934,-6.4933,-6.4932,-6.4932,-6.4045,-6.4104,-6.4177,-6.4261,-6.4315,-6.4376,-6.4437,-6.4482,-6.4555,-6.4646,-6.4663,-6.4755,-6.4822,-6.4933,-6.4976,-6.5046,-6.5033,-6.5058,-6.5064,-6.507,-6.5073,-6.4923,-6.5061,-6.5061,-6.5061,-6.506,-6.506,0,-6.4166,-6.4214,-6.4291,-6.4384,-6.4449,-6.4451,-6.4524,-6.4578,-6.4659,-6.4723,-6.4792,-6.4891,-6.4971,-6.5027,-6.5108,-6.5154,-6.5159,-6.5174,-6.5171,-6.518,-6.508,-6.5057,-6.517,-6.517,-6.517,-6.517,-6.517,-6.517,-6.4237,-6.4339,-6.4368,-6.4496,-6.4543,-6.4635,-6.4676,-6.4733,-6.4784,-6.4895,-6.4964,-6.5,-6.5061,-6.5147,-6.5221,-6.5235,-6.5264,-6.528,-6.5294,-6.5199,-6.5187,-6.5176,-6.5155,-6.5286,-6.5286,-6.5388,-6.5389,-6.539]}]]